This is the latest recevied weather packets stored in our database for station/object SR5NLK-1. If no packets are shown the sender has not sent any weather packets the latest 10 day(s).
| Time | Temp. | Humidity | Pressure | Rain* | Wind** | Luminosity | Snow |
|---|---|---|---|---|---|---|---|
| 1777881302 | 31.67° C | 22% | 1046.7 hPa | 0 mm | - | - | - |
| 1777881002 | 31.67° C | 22% | 1010.4 hPa | 0 mm | - | - | - |
| 1777880702 | 31.67° C | 21% | 1000.1 hPa | 0 mm | - | - | - |
| 1777880402 | 31.67° C | 21% | 1078.4 hPa | 0 mm | - | - | - |
| 1777880341 | 31.67° C | 21% | 1001.8 hPa | 0 mm | - | - | - |
| 1777880102 | 32.22° C | 21% | 1092 hPa | 0 mm | - | - | - |
| 1777879810 | 32.78° C | 21% | 968.8 hPa | 0 mm | - | - | - |
| 1777879802 | 32.78° C | 21% | 968.8 hPa | 0 mm | - | - | - |
| 1777879502 | 32.78° C | 21% | 1081.4 hPa | 0 mm | - | - | - |
| 1777879202 | 32.78° C | 21% | 1036.4 hPa | 0 mm | - | - | - |
| 1777878902 | 32.22° C | 21% | 997.9 hPa | 0 mm | - | - | - |
| 1777878602 | 32.22° C | 21% | 991.6 hPa | 0 mm | - | - | - |
| 1777878361 | 32.78° C | 21% | 985 hPa | 0 mm | - | - | - |
| 1777878302 | 32.78° C | 21% | 963.9 hPa | 0 mm | - | - | - |
| 1777878002 | 32.22° C | 22% | 1010.9 hPa | 0 mm | - | - | - |
| 1777877702 | 31.67° C | 22% | 1099.2 hPa | 0 mm | - | - | - |
| 1777877402 | 31.11° C | 22% | 1043.1 hPa | 0 mm | - | - | - |
| 1777877102 | 31.11° C | 22% | 1049.4 hPa | 0 mm | - | - | - |
| 1777876802 | 31.11° C | 22% | 1027.1 hPa | 0 mm | - | - | - |
| 1777876502 | 31.11° C | 22% | 1047 hPa | 0 mm | - | - | - |
| 1777876381 | 31.11° C | 22% | 1052.2 hPa | 0 mm | - | - | - |
| 1777876202 | 31.67° C | 22% | 1094.5 hPa | 0 mm | - | - | - |
| 1777875902 | 31.11° C | 24% | 1089.8 hPa | 0 mm | - | - | - |
| 1777875602 | 30.56° C | 24% | 1042.7 hPa | 0 mm | - | - | - |
| 1777875302 | 30° C | 24% | 1027.1 hPa | 0 mm | - | - | - |
* Rain latest hour (hover to see other rain measurements)
** Current wind speed in m/s (hover to see current wind gust speed)